Current weather by "City, St" or "zip code"  
 

Current Conditions: St. Petersburg/Clearwater Airport, FL

A Few Clouds


76.0 F

Last Updated on May 21 2022, 4:53 am EDT
Humidity: 85%
Wind Speed: E 6.9 mph
Barometer 30.11 in
Dewpoint: 71.1 F
Visibility: 10.00 mi
Precip: --
Heat Index: NA
Wind Chill: NA
Current conditions at:

St. Petersburg/Clearwater Airport, FL (KPIE)

Lat: 27.91259 Lon: 82.68554

Local Radar Image active severe weather and emergency alerts image image weather storm and storm spotter reports image weather observation monitoring service image
Local
Radar
Active
Alerts
Storm Reports Obs
Monitoring

Sign-up For Email & Text Message Weather Alert Notification Services



Advertise Here

Observation History for St. Petersburg/Clearwater Airport, FL


Time Wind
(mph)
Vis
(mi)
Weather Precip (in) Temperature (F) Relative
Humidity
Wind
Chill
(F)
Heat
Index
(F)
Pressure
Air Dwpt altimeter
(in)
sea level
(mb)
Rmks
4:53 am EDT E 6.9 10.00 A Few Clouds -- 76.0 71.1 85% NA NA 30.11 1019.6
3:53 am EDT E 9.2 10.00 Mostly Cloudy -- 76.0 70.0 82% NA NA 30.10 1019.2
2:53 am EDT E 8.1 10.00 Partly Cloudy -- 77.0 71.1 82% NA NA 30.10 1019.2
1:53 am EDT SE 12.7 10.00 Overcast -- 77.0 71.1 82% NA NA 30.10 1019.4
12:53 am EDT SE 13.8 G 23.0 10.00 Overcast -- 77.0 71.1 82% NA NA 30.09 1018.7
11:53 pm EDT SE 18.4 G 27.6 10.00 Mostly Cloudy -- 78.0 71.1 79% NA NA 30.09 1018.7
10:53 pm EDT SE 19.6 G 28.8 10.00 Mostly Cloudy -- 77.0 73.0 88% NA NA 30.10 1019.2
9:53 pm EDT SE 21.9 G 31.1 10.00 A Few Clouds and Breezy -- 78.0 73.0 85% NA NA 30.07 1018.3
8:53 pm EDT S 10.4 10.00 Partly Cloudy -- 82.0 77.0 85% NA 90 30.05 1017.4
7:53 pm EDT S 8.1 10.00 Mostly Cloudy -- 83.0 75.9 79% NA 91 30.04 1017.1
5:53 pm EDT SW 13.8 10.00 Partly Cloudy -- 84.0 75.9 77% NA 93 30.00 1015.9
4:53 pm EDT S 13.8 10.00 A Few Clouds -- 85.0 75.0 72% NA 94 30.00 1015.8
3:53 pm EDT S 16.1 G 26.5 10.00 A Few Clouds -- 87.0 75.0 67% NA 96 30.02 1016.4
2:53 pm EDT S 13.8 10.00 Thunderstorm in Vicinity -- 83.0 75.9 79% NA 91 30.02 1016.5
11:53 am EDT S 5.8 10.00 A Few Clouds -- 80.0 75.9 87% NA 85 30.05 1017.5
10:53 am EDT SE 5.8 10.00 A Few Clouds -- 77.0 75.0 94% NA NA 30.04 1017.2
9:53 am EDT S 6.9 10.00 Light Rain -- 74.0 73.9 100% NA NA 30.06 1017.8
7:53 am EDT SE 6.9 10.00 Overcast -- 77.0 75.0 94% NA NA 30.01 1016.1

Regional Weather Observation


St. Petersburg/Clearwater Airport, FL (KPIE)

A Few Clouds
76.0 F

Tampa, Vandenberg Airport, FL (KVDF)

Fair
73.0 F

Tampa, Tampa International Airport, FL (KTPA)

Fair
77.0 F

Tampa, Peter O Knight Airport, FL (KTPF)

Overcast
NULL F

Brooksville-Tampa Bay Regional Airport, FL (KBKV)

Mostly Cloudy
70.0 F

Macdill Air Force Base, Fl., FL (KMCF)

Mostly Cloudy
74.0 F

Advertise Here


Advertise Here